Location: Unspecified
(0.0000°N, 0.0000°E)
Time: 18:48:26
(UTC+00:00)

Envisat - Pass Details

Date: 09 December 2017
Orbit: 764 x 766 km, 98.2° (Epoch: 10 December)

Event Time Altitude Azimuth Distance (km) Brightness Sun altitude
Rises 19:24:19 0° 148° (SSE) 3,230 6.2 -21.0°
Reaches altitude 10° 19:26:55 10° 136° (SE) 2,301 5.3 -21.6°
Enters shadow 19:27:08 11° 135° (SE) 2,227 5.2 -21.7°
